Weather Roundup
Issued by NWS Chicago, IL

Home | Current Version | Previous Version | Graphics & Text | Print | Product List | Glossary On
Versions: 1 2 3 4 5 6 7 8 9 10 11 12 13 14 15 16 17 18 19 20 21 22 23 24 25 26 27 28 29 30 31 32 33 34 35 36 37 38 39 40 41 42 43 44 45 46 47 48 49 50
000
NZUS59 KLOT 010110
HRRLOT

CHICAGO AREA WEATHER ROUNDUP
NATIONAL WEATHER SERVICE CHICAGO/ROMEOVILLE IL
800 PM CDT TUE SEP 30 2014

NOTE: "FAIR" INDICATES FEW OR NO CLOUDS BELOW 12,000 FEET WITH NO
SIGNIFICANT WEATHER AND/OR OBSTRUCTIONS TO VISIBILITY.

* THESE STATIONS ARE NOT UNDER NWS QUALITY CONTROL. THEY ALSO MAY NOT
  REPORT WEATHER SUCH AS PRECIPITATION OR FOG.

ILZ005-006-012>014-019>023-010200-
NORTHEAST ILLINOIS

CITY           SKY/WX    TMP DP  RH WIND       PRES   REMARKS
OHARE          CLOUDY    53  49  86 N5        30.01S
MIDWAY         DRIZZLE   56  51  84 NE3       30.01R
AURORA         CLOUDY    55  45  68 NE10      30.02R
LANSING*       CLOUDY    56  48  75 NE5       30.01R
JOLIET*        CLOUDY    54  48  79 NE7       30.01S
WAUKEGAN       CLOUDY    52  50  93 N6        30.01
DUPAGE AIRPORT CLOUDY    54  47  77 NE8       30.01S
WHEELING       CLOUDY    55  49  80 N3        30.03R
KANKAKEE*      CLOUDY    55  48  76 NE5       30.02R
MORRIS*        CLOUDY    53  49  84 CALM      30.00R
LEWIS AIRPORT* CLOUDY    54  48  79 NE7       30.01S
NORTHERLY IS     N/A     56  47  71 NE8         N/A
$$

WIZ051-052-058>065-066-070>072-010200-
SOUTHEAST WISCONSIN

CITY           SKY/WX    TMP DP  RH WIND       PRES   REMARKS
MILWAUKEE      DRIZZLE   50  48  93 N7        30.04R
KENOSHA*       CLOUDY    51  50  96 NE5       30.03R FOG
RACINE*        LGT RAIN  52  49  89 NE8       30.04S
BURLINGTON     CLOUDY    48  47  93 E5        30.03R
WAUKESHA       CLOUDY    46  45  93 NE6       30.04S
WEST BEND      CLOUDY    46  43  87 N3        30.05S
$$

INZ001>003-010>013-019-020-010200-
NORTHWEST INDIANA

CITY           SKY/WX    TMP DP  RH WIND       PRES   REMARKS
GARY*          CLOUDY    57  48  72 N5        30.01S
MICHIGAN CITY* NOT AVBL
RENSSELAER*    NOT AVBL
VALPARAISO     CLOUDY    53  46  77 CALM      30.01S
$$

LMZ740>746-010200-
SOUTHERN LAKE MICHIGAN

STATION/POSITION TIME  SKY/WX   TEMP WIND        PRES    VSBY
                                AIR  DIR/SP/G
                 (UTC)          (F)  (DEG/KT/KT) (MB)    (MI)
HARRISON CRIB    0100            56   30/  8/ 10   N/A
BURNHAM HARBOR   0100            56   50/ 11/ 12   N/A
CALUMET HARBOR   0100            56   30/  6/ 13 1014.9S
BURNS HARBOR     NOT AVBL
MICHIGAN CITY    0100            54   60/  7/ 10   N/A
$$

ABBREVIATIONS USED IN REMARKS
   TC - TEMPERATURE IN CELSIUS
  WCI - WIND CHILL INDEX
   HX - HEAT INDEX
  VSB - VISIBILITY
$$



USA.gov is the U.S. government's official web portal to all federal, state and local government web resources and services.